TimeCST,TemperatureF,Dew PointF,Humidity,Sea Level PressureIn,VisibilityMPH,Wind Direction,Wind SpeedMPH,Gust SpeedMPH,PrecipitationIn,Events,Conditions,WindDirDegrees,DateUTC
12:15 AM,33.1,33.1,100,29.70,1.5,SSE,9.2,-,N/A,,Overcast,160,2013-01-11 06:15:00
12:35 AM,33.3,33.3,100,29.68,1.5,SSE,9.2,-,N/A,,Overcast,160,2013-01-11 06:35:00
12:55 AM,33.3,33.4,100,29.68,1.8,SSE,5.8,-,N/A,,Overcast,160,2013-01-11 06:55:00
1:15 AM,33.4,33.6,100,29.66,1.8,SSE,9.2,-,N/A,,Overcast,160,2013-01-11 07:15:00
1:35 AM,33.4,33.4,100,29.65,2.0,SSE,9.2,-,N/A,,Overcast,150,2013-01-11 07:35:00
1:55 AM,33.4,33.8,100,29.65,2.0,South,5.8,-,N/A,,Overcast,170,2013-01-11 07:55:00
2:15 AM,33.4,33.8,100,29.64,1.8,SSE,8.1,-,N/A,,Overcast,150,2013-01-11 08:15:00
2:35 AM,33.6,33.8,100,29.63,2.0,SSE,8.1,-,N/A,,Overcast,150,2013-01-11 08:35:00
2:55 AM,33.8,33.8,100,29.62,2.5,SSE,6.9,-,N/A,,Overcast,160,2013-01-11 08:55:00
3:15 AM,33.8,33.8,100,29.61,2.5,SSE,6.9,-,N/A,,Overcast,150,2013-01-11 09:15:00
3:35 AM,33.8,33.8,100,29.61,2.0,SSE,8.1,-,N/A,,Overcast,160,2013-01-11 09:35:00
3:55 AM,33.8,34.0,100,29.61,2.0,SSE,5.8,-,N/A,,Overcast,160,2013-01-11 09:55:00
4:15 AM,33.8,34.0,100,29.60,1.5,SSE,5.8,-,N/A,,Overcast,160,2013-01-11 10:15:00
4:35 AM,33.8,33.8,100,29.59,1.5,SSE,6.9,-,N/A,,Overcast,160,2013-01-11 10:35:00
4:55 AM,33.8,33.8,100,29.58,1.2,SSE,8.1,-,N/A,,Overcast,160,2013-01-11 10:55:00
5:15 AM,33.8,33.8,100,29.57,1.8,SSE,6.9,-,N/A,,Overcast,160,2013-01-11 11:15:00
5:55 AM,33.8,33.8,100,29.55,1.8,SSE,6.9,-,N/A,,Overcast,150,2013-01-11 11:55:00
6:15 AM,33.8,33.8,100,29.54,2.0,SSE,6.9,-,N/A,,Overcast,150,2013-01-11 12:15:00
6:35 AM,33.8,33.8,100,29.54,2.5,SSE,8.1,-,N/A,,Overcast,160,2013-01-11 12:35:00
6:55 AM,33.8,34.0,100,29.54,3.0,SSE,8.1,-,N/A,,Overcast,150,2013-01-11 12:55:00
7:15 AM,33.8,34.0,100,29.55,3.0,South,5.8,-,N/A,,Overcast,170,2013-01-11 13:15:00
7:35 AM,34.0,34.2,100,29.53,2.5,SSE,4.6,-,N/A,,Overcast,160,2013-01-11 13:35:00
7:55 AM,34.2,34.3,100,29.54,2.5,SSE,5.8,-,N/A,,Overcast,160,2013-01-11 13:55:00
8:15 AM,34.2,34.3,100,29.53,1.2,SSE,6.9,-,N/A,,Overcast,160,2013-01-11 14:15:00
8:35 AM,34.2,34.3,100,29.53,1.2,South,6.9,-,N/A,,Overcast,170,2013-01-11 14:35:00
8:55 AM,34.0,34.2,100,29.52,1.2,SSE,5.8,-,N/A,,Overcast,150,2013-01-11 14:55:00
9:15 AM,34.0,34.2,100,29.52,1.0,South,4.6,-,N/A,,Overcast,170,2013-01-11 15:15:00
9:35 AM,-9999,-9999,N/A,29.54,1.2,South,4.6,-,N/A,,Overcast,190,2013-01-11 15:35:00
9:55 AM,-9999,-9999,N/A,29.54,1.0,South,5.8,-,N/A,,Overcast,170,2013-01-11 15:55:00
10:15 AM,-9999,-9999,N/A,29.53,0.8,SSE,4.6,-,N/A,,Overcast,160,2013-01-11 16:15:00
10:35 AM,34.7,34.7,100,29.53,0.8,SSE,4.6,-,N/A,,Overcast,150,2013-01-11 16:35:00
10:55 AM,34.7,34.9,100,29.52,0.5,SSE,5.8,-,N/A,Fog,Fog,150,2013-01-11 16:55:00
11:35 AM,35.1,35.2,100,29.50,0.8,SSE,5.8,-,N/A,,Overcast,150,2013-01-11 17:35:00
11:55 AM,35.2,35.6,100,29.48,1.0,SSE,5.8,-,N/A,,Overcast,150,2013-01-11 17:55:00
12:15 PM,35.6,35.8,100,29.48,1.0,SSE,5.8,-,N/A,,Overcast,150,2013-01-11 18:15:00
12:36 PM,35.8,36.0,100,29.47,1.2,SSE,4.6,-,N/A,,Overcast,150,2013-01-11 18:36:00
12:55 PM,35.8,36.0,100,29.46,1.8,SSE,4.6,-,N/A,,Overcast,160,2013-01-11 18:55:00
1:15 PM,35.8,35.8,100,29.46,2.0,South,6.9,-,N/A,,Overcast,170,2013-01-11 19:15:00
1:35 PM,35.6,35.6,100,29.46,1.5,SSE,5.8,-,N/A,,Overcast,160,2013-01-11 19:35:00
1:55 PM,35.6,35.6,100,29.45,0.8,SSE,5.8,-,N/A,,Overcast,160,2013-01-11 19:55:00
2:15 PM,35.6,35.6,100,29.45,0.8,SSE,4.6,-,N/A,,Overcast,150,2013-01-11 20:15:00
2:35 PM,35.2,35.2,100,29.44,0.8,SSE,4.6,-,N/A,,Overcast,150,2013-01-11 20:35:00
2:55 PM,35.1,35.2,100,29.43,0.5,SE,5.8,-,N/A,Fog,Fog,140,2013-01-11 20:55:00
3:15 PM,34.9,35.1,100,29.43,0.5,SE,4.6,-,N/A,Fog,Fog,140,2013-01-11 21:15:00
3:35 PM,34.9,35.1,100,29.43,0.5,SE,4.6,-,N/A,Fog,Fog,140,2013-01-11 21:35:00
3:55 PM,35.1,35.2,100,29.43,0.8,SE,4.6,-,N/A,,Overcast,140,2013-01-11 21:55:00
4:15 PM,35.1,35.2,100,29.42,1.0,SE,5.8,-,N/A,,Overcast,140,2013-01-11 22:15:00
4:35 PM,35.2,35.6,100,29.41,1.2,SE,4.6,-,N/A,,Overcast,140,2013-01-11 22:35:00
4:55 PM,35.4,35.6,100,29.41,1.8,SE,4.6,-,N/A,,Light Drizzle,140,2013-01-11 22:55:00
5:15 PM,35.2,35.6,100,29.41,1.8,SE,4.6,-,N/A,,Light Drizzle,130,2013-01-11 23:15:00
5:35 PM,35.6,35.6,100,29.39,1.0,SE,4.6,-,N/A,,Light Drizzle,130,2013-01-11 23:35:00
5:55 PM,35.8,36.0,100,29.37,1.5,SE,5.8,-,N/A,,Overcast,130,2013-01-11 23:55:00
6:15 PM,35.6,35.8,100,29.38,0.8,SE,4.6,-,N/A,,Overcast,140,2013-01-12 00:15:00
6:35 PM,35.8,36.0,100,29.38,0.5,SE,3.5,-,N/A,Fog,Fog,140,2013-01-12 00:35:00
6:55 PM,35.8,36.0,100,29.37,0.5,SSE,3.5,-,N/A,Fog,Fog,160,2013-01-12 00:55:00
7:15 PM,36.0,36.1,100,29.37,0.5,SSE,3.5,-,N/A,,Light Drizzle,160,2013-01-12 01:15:00
7:35 PM,37.2,37.2,100,29.37,0.5,South,8.1,-,N/A,Fog,Fog,180,2013-01-12 01:35:00
7:55 PM,37.4,37.6,100,29.36,0.8,South,5.8,-,N/A,,Drizzle,170,2013-01-12 01:55:00
8:15 PM,36.9,37.0,100,29.36,0.8,SSE,5.8,-,N/A,,Drizzle,160,2013-01-12 02:15:00
8:35 PM,36.9,37.0,100,29.35,0.8,South,6.9,-,N/A,,Overcast,170,2013-01-12 02:35:00
8:55 PM,36.7,36.9,100,29.35,0.5,South,6.9,-,N/A,Fog,Fog,170,2013-01-12 02:55:00
9:15 PM,36.5,36.7,100,29.35,0.5,South,8.1,-,N/A,,Drizzle,180,2013-01-12 03:15:00
9:35 PM,37.2,37.4,100,29.35,0.8,South,6.9,-,N/A,,Overcast,180,2013-01-12 03:35:00
9:55 PM,37.4,37.6,100,29.35,1.2,SSW,8.1,-,N/A,,Overcast,200,2013-01-12 03:55:00
10:15 PM,36.9,37.0,100,29.35,1.0,SSW,8.1,-,N/A,,Overcast,200,2013-01-12 04:15:00
10:35 PM,36.5,36.5,100,29.35,1.0,SW,9.2,-,N/A,,Overcast,220,2013-01-12 04:35:00
10:55 PM,35.8,36.0,100,29.35,1.5,SW,8.1,-,N/A,,Overcast,230,2013-01-12 04:55:00
11:15 PM,35.2,35.4,100,29.36,3.0,SW,6.9,-,N/A,,Overcast,230,2013-01-12 05:15:00
11:35 PM,34.7,34.7,100,29.36,5.0,SW,5.8,-,N/A,,Light Drizzle,230,2013-01-12 05:35:00
11:55 PM,34.3,34.5,100,29.36,5.0,SW,5.8,-,N/A,Rain,Light Rain,220,2013-01-12 05:55:00